User: anonymous   Login
Location: Muenchen
(48.1800°N, 11.5800°E)
Time: 04:42:27
(UTC+02:00)
Language:

Tiros 1 - Orbit

View from above orbital plane
View from above orbital plane
View from above satellite
View from above satellite

Ground track
Ground track

The orbit data is extracted from the following two-line orbital elements,

1    29U 60002B   17087.40555703 -.00000023 +00000-0 +27641-4 0  9991
2    29 048.3791 102.6802 0024718 238.3385 121.5115 14.74151796044872
Epoch (UTC): 28 March 2017 09:44:00
Eccentricity: 0.0024718
inclination: 48.3791°
perigee height: 630 km
apogee height: 665 km
right ascension of ascending node: 102.6802°
argument of perigee: 238.3385°
revolutions per day: 14.74151796
mean anomaly at epoch: 121.5115°
orbit number at epoch: 4487

The dashed part of the orbit path shows where the satellite is in the earth's shadow,  

DLR